Date,TemperatureHighF,TemperatureAvgF,TemperatureLowF,DewpointHighF,DewpointAvgF,DewpointLowF,HumidityHigh,HumidityAvg,HumidityLow,PressureMaxIn,PressureMinIn,WindSpeedMaxMPH,WindSpeedAvgMPH,GustSpeedMaxMPH,PrecipitationSumIn
2013-7-1,79,71,59,-100,-100,-100,0,0,100,0.00,40.00,0,-999,0,0.00
2013-7-2,79,70,63,-100,-100,-100,0,0,100,0.00,40.00,0,-999,0,0.00
2013-7-3,86,72,61,-100,-100,-100,0,0,100,0.00,40.00,0,-999,0,0.00
2013-7-4,86,74,61,-100,-100,-100,0,0,100,0.00,40.00,0,-999,0,0.00
2013-7-5,88,77,63,-100,-100,-100,0,0,100,0.00,40.00,0,-999,0,0.00
2013-7-6,90,74,64,-100,-100,-100,0,0,100,0.00,40.00,0,-999,0,0.00
2013-7-7,90,82,70,-100,-100,-100,0,0,100,0.00,40.00,0,-999,0,0.00
2013-7-8,91,75,68,-100,-100,-100,0,0,100,0.00,40.00,0,-999,0,0.00
2013-7-9,86,76,70,-100,-100,-100,0,0,100,0.00,40.00,0,-999,0,0.00
2013-7-10,79,70,63,-100,-100,-100,0,0,100,0.00,40.00,0,-999,0,0.00
2013-7-11,84,75,59,-100,-100,-100,0,0,100,0.00,40.00,0,-999,0,0.00
2013-7-12,84,71,63,-100,-100,-100,0,0,100,0.00,40.00,0,-999,0,0.00
2013-7-13,70,65,59,-100,-100,-100,0,0,100,0.00,40.00,0,-999,0,0.00
2013-7-14,84,75,63,-100,-100,-100,0,0,100,0.00,40.00,0,-999,0,0.00
2013-7-15,90,78,66,-100,-100,-100,0,0,100,0.00,40.00,0,-999,0,0.00
2013-7-16,93,84,72,-100,-100,-100,0,0,100,0.00,40.00,0,-999,0,0.00
2013-7-17,95,85,72,-100,-100,-100,0,0,100,0.00,40.00,0,-999,0,0.00
2013-7-18,91,83,73,-100,-100,-100,0,0,100,0.00,40.00,0,-999,0,0.00
2013-7-19,82,79,73,-100,-100,-100,0,0,100,0.00,40.00,0,-999,0,0.00
2013-7-20,81,72,63,-100,-100,-100,0,0,100,0.00,40.00,0,-999,0,0.00
2013-7-21,86,72,64,-100,-100,-100,0,0,100,0.00,40.00,0,-999,0,0.00
2013-7-22,86,74,64,-100,-100,-100,0,0,100,0.00,40.00,0,-999,0,0.00
2013-7-23,73,67,61,-100,-100,-100,0,0,100,0.00,40.00,0,-999,0,0.00
2013-7-24,75,67,55,-100,-100,-100,0,0,100,0.00,40.00,0,-999,0,0.00
2013-7-25,81,67,59,-100,-100,-100,0,0,100,0.00,40.00,0,-999,0,0.00
2013-7-26,68,64,61,-100,-100,-100,0,0,100,0.00,40.00,0,-999,0,0.00
2013-7-27,63,56,52,-100,-100,-100,0,0,100,0.00,40.00,0,-999,0,0.00
2013-7-28,70,59,50,-100,-100,-100,0,0,100,0.00,40.00,0,-999,0,0.00
2013-7-29,77,68,54,-100,-100,-100,0,0,100,0.00,40.00,0,-999,0,0.00
2013-7-30,77,70,63,-100,-100,-100,0,0,100,0.00,40.00,0,-999,0,0.00
2013-7-31,75,69,61,-100,-100,-100,0,0,100,0.00,40.00,0,-999,0,0.00